Location: Hopkins Observatory
(42.6965°N, 73.1843°W)
Time: 21:06:42
(UTC-04:00)

UOSAT-12 - Visible Passes

Search period start: 28 March 2015 00:00
Search period end: 07 April 2015 00:00
Orbit: 595 x 660 km, 64.6° (Epoch: 27 March)

Date Brightness Start Highest point End Pass type
(mag) Time Alt. Az. Time Alt. Az. Time Alt. Az.
28 Mar 10.1 04:08:41 10° N 04:11:28 16° NE 04:14:20 10° ENE visible
28 Mar 7.2 05:47:40 10° NNW 05:52:23 85° NE 05:56:58 10° SE visible
28 Mar 8.3 20:00:15 10° SSE 20:03:45 22° ESE 20:07:22 10° ENE visible
28 Mar 8.0 21:39:03 10° SW 21:43:37 49° NW 21:48:13 10° NNE visible
28 Mar 10.4 23:23:37 10° NW 23:24:57 11° NNW 23:26:09 10° NNW visible
29 Mar 9.3 04:28:12 10° NNW 04:32:08 26° NE 04:36:04 10° ESE visible
29 Mar 7.5 06:08:02 10° NW 06:12:29 44° WSW 06:16:49 10° S visible
29 Mar 7.4 20:19:16 10° S 20:23:43 46° ESE 20:28:15 10° NE visible
29 Mar 9.3 22:00:04 10° WSW 22:04:04 26° NW 22:08:03 10° NNE visible
30 Mar 10.4 03:10:09 10° NNE 03:11:15 11° NNE 03:12:31 10° NE visible
30 Mar 8.1 04:48:03 10° NNW 04:52:36 49° NE 04:57:04 10° SE visible
30 Mar 7.2 20:39:08 10° SW 20:43:50 84° NW 20:48:35 10° NNE visible
30 Mar 10.0 22:21:48 10° WNW 22:24:45 16° NW 22:27:35 10° N visible
31 Mar 9.9 03:28:57 10° N 03:32:05 18° NE 03:35:15 10° E visible
31 Mar 7.0 05:08:09 10° NW 05:12:51 81° WSW 05:17:25 10° SSE visible
31 Mar 8.5 20:59:40 10° WSW 21:04:08 42° NW 21:08:38 10° NNE visible
01 Apr 9.0 03:48:34 10° NNW 03:52:42 30° NE 03:56:47 10° ESE visible
01 Apr 7.6 05:28:37 10° NW 05:32:54 37° WSW 05:37:05 10° S visible
01 Apr 7.3 19:39:35 10° SSW 19:44:09 55° ESE 19:48:47 10° NE visible
01 Apr 9.6 21:20:50 10° W 21:24:38 23° NW 21:28:24 10° N visible
02 Apr 10.3 02:30:05 10° N 02:31:53 12° NNE 02:33:49 10° NE visible
02 Apr 7.7 04:08:28 10° NNW 04:13:06 58° NE 04:17:37 10° SE visible
02 Apr 8.5 05:49:45 10° WNW 05:52:50 17° WSW 05:55:43 10° SSW visible
02 Apr 7.5 19:59:37 10° SW 20:04:18 71° NW 20:09:02 10° NNE visible
02 Apr 10.2 21:42:48 10° WNW 21:45:21 14° NNW 21:47:47 10° N visible
03 Apr 9.6 02:49:15 10° N 02:52:39 20° NE 02:56:07 10° E visible
03 Apr 7.0 04:28:39 10° NW 04:33:18 67° WSW 04:37:49 10° SSE visible
03 Apr 8.9 20:20:18 10° WSW 20:24:39 36° NW 20:29:01 10° NNE visible
04 Apr 9.3 03:08:56 10° NNW 03:10:43 20° N 03:10:43 20° N visible
04 Apr9.504:57:36S04:57:36S04:47:52NWvisible
04 Apr 9.8 20:41:38 10° W 20:45:12 20° NW 20:48:43 10° N visible
05 Apr 10.2 01:50:12 10° N 01:51:32 13° NNE 01:51:32 13° NNE visible
05 Apr 10.2 21:03:52 10° WNW 21:05:58 12° NNW 21:07:56 10° N visible
06 Apr 10.0 02:09:33 10° N 02:10:16 13° N 02:10:16 13° N visible
